GW2085 Weather Reports


Display with metric or nautical units.
time (UTC)temp
F
wind
direction
speed
MPH
gust
MPH
rain 1hr
in
rain 24hr
in
rain mn
in
humidity
%
barometer
mb
20260901043106 67 0 0.0 0.0 0.00 0.00 0.00 79 1014.2
20260901041608 68 0 0.0 0.0 0.00 0.00 0.00 77 1014.0
20260901040100 68 0 0.0 0.0 0.00 0.00 0.00 75 1014.2
20260901034559 69 0 0.0 0.0 0.00 0.00 0.00 73 1014.0
20260901033107 70 0 0.0 2.0 0.00 0.00 0.00 72 1013.7
20260901031607 71 248 0.0 1.0 0.00 0.00 0.00 70 1013.4
20260901030059 72 0 0.0 1.0 0.00 0.00 0.00 67 1013.2
20260901024556 73 0 0.0 3.0 0.00 0.00 0.00 66 1013.2
20260901023102 74 0 0.0 2.0 0.00 0.00 0.00 64 1012.9
20260901021601 75 0 0.0 2.0 0.00 0.00 0.00 61 1012.6
20260901020100 76 234 1.0 3.0 0.00 0.00 0.00 60 1012.5
20260901014606 77 247 2.0 5.0 0.00 0.00 0.00 56 1012.3
20260901013102 80 240 0.0 4.0 0.00 0.00 0.00 54 1012.3
20260901011558 81 3 1.0 5.0 0.00 0.00 0.00 54 1012.4
20260901010106 82 283 2.0 7.0 0.00 0.00 0.00 53 1012.5
20260901004613 83 237 3.0 6.0 0.00 0.00 0.00 50 1012.5
20260901003109 84 233 3.0 6.0 0.00 0.00 0.00 46 1012.5
20260901001600 84 233 2.0 7.0 0.00 0.00 0.00 45 1012.5
20260901000112 84 255 1.0 9.0 0.00 0.00 0.00 42 1012.7
20260831234628 84 213 1.0 8.0 0.00 0.00 0.00 45 1012.8
20260831233118 85 242 3.0 8.0 0.00 0.00 0.00 44 1012.7
20260831231607 85 285 3.0 7.0 0.00 0.00 0.00 45 1012.6
20260831224606 85 276 2.0 9.0 0.00 0.00 0.00 42 1012.8
20260831223054 86 266 2.0 11.0 0.00 0.00 0.00 42 1012.9
20260831221603 87 115 4.0 11.0 0.00 0.00 0.00 43 1013.1
20260831220100 88 273 2.0 8.0 0.00 0.00 0.00 40 1013.1
20260831214604 87 285 4.0 8.0 0.00 0.00 0.00 40 1013.0
20260831213053 88 290 3.0 8.0 0.00 0.00 0.00 41 1013.0
20260831211600 87 264 4.0 10.0 0.00 0.00 0.00 40 1013.2
20260831210056 87 136 4.0 9.0 0.00 0.00 0.00 40 1013.3
20260831204631 89 179 3.0 8.0 0.00 0.00 0.00 39 1013.4
20260831203114 88 119 2.0 7.0 0.00 0.00 0.00 42 1013.5
20260831201557 89 280 3.0 9.0 0.00 0.00 0.00 42 1013.4
20260831200106 88 267 5.0 10.0 0.00 0.00 0.00 44 1013.5
20260831194605 89 84 2.0 5.0 0.00 0.00 0.00 42 1013.6
20260831193058 90 233 2.0 7.0 0.00 0.00 0.00 39 1013.7
20260831191555 89 196 1.0 5.0 0.00 0.00 0.00 42 1013.8
20260831190054 88 89 1.0 5.0 0.00 0.00 0.00 43 1013.9
20260831184559 87 236 1.0 7.0 0.00 0.00 0.00 42 1014.0
20260831183055 86 243 2.0 7.0 0.00 0.00 0.00 45 1014.0
20260831181555 84 281 2.0 6.0 0.00 0.00 0.00 49 1014.0
20260831180106 83 328 2.0 5.0 0.00 0.00 0.00 53 1013.9
20260831174605 84 271 1.0 5.0 0.00 0.00 0.00 54 1014.0
20260831173059 82 82 1.0 4.0 0.00 0.00 0.00 58 1014.0
20260831171556 81 89 0.0 4.0 0.00 0.00 0.00 61 1013.9
20260831170100 80 207 1.0 4.0 0.00 0.00 0.00 63 1014.0
20260831164601 78 53 1.0 5.0 0.00 0.00 0.00 66 1014.0
20260831163100 78 220 1.0 4.0 0.00 0.00 0.00 67 1013.9
20260831161610 75 25 1.0 4.0 0.00 0.00 0.00 71 1013.9
20260831160103 74 186 1.0 4.0 0.00 0.00 0.00 74 1013.9
20260831154630 73 201 2.0 4.0 0.00 0.00 0.00 76 1013.9
20260831153055 71 202 2.0 3.0 0.00 0.00 0.00 80 1013.9
20260831151610 70 201 0.0 3.0 0.00 0.00 0.00 82 1013.9
20260831150106 69 45 1.0 5.0 0.00 0.00 0.00 83 1013.8
20260831144603 68 137 1.0 5.0 0.00 0.00 0.00 83 1013.7
20260831143128 68 0 0.0 3.0 0.00 0.00 0.00 84 1013.7
20260831141621 68 110 1.0 4.0 0.00 0.00 0.00 85 1013.5
20260831140104 68 34 2.0 3.0 0.00 0.00 0.00 85 1013.2
20260831134602 68 0 0.0 1.0 0.00 0.00 0.00 86 1013.0
20260831133103 68 0 0.0 2.0 0.00 0.00 0.00 86 1012.8
20260831131601 68 0 0.0 1.0 0.00 0.00 0.00 87 1012.7
20260831130114 68 0 0.0 2.0 0.00 0.00 0.00 88 1012.7
20260831124601 68 0 0.0 1.0 0.00 0.00 0.00 89 1012.8
20260831123106 68 0 0.0 2.0 0.00 0.00 0.00 89 1012.7
20260831121612 68 0 0.0 1.0 0.00 0.00 0.00 89 1012.7
20260831120114 68 51 0.0 1.0 0.00 0.00 0.00 89 1012.7
20260831114606 68 0 0.0 2.0 0.00 0.00 0.00 89 1012.5
20260831113104 68 0 0.0 2.0 0.00 0.00 0.00 89 1012.6
20260831111607 68 216 1.0 2.0 0.00 0.00 0.00 90 1012.7
20260831104600 68 0 0.0 0.0 0.00 0.00 0.00 90 1012.7
20260831103106 68 0 0.0 1.0 0.00 0.00 0.00 90 1012.8
20260831101608 68 243 1.0 2.0 0.00 0.00 0.00 90 1012.7
20260831094603 68 0 0.0 2.0 0.00 0.00 0.00 90 1012.7
20260831093102 68 197 1.0 3.0 0.00 0.00 0.00 90 1012.8
20260831091604 67 0 0.0 1.0 0.00 0.00 0.00 90 1012.8
20260831090058 67 0 0.0 1.0 0.00 0.00 0.00 91 1012.8
20260831084555 66 0 0.0 0.0 0.00 0.00 0.00 90 1012.9
20260831083104 66 0 0.0 0.0 0.00 0.00 0.00 89 1012.9
20260831081558 66 0 0.0 0.0 0.00 0.00 0.00 89 1012.8
20260831080057 67 0 0.0 0.0 0.00 0.00 0.00 89 1012.9
20260831074557 66 0 0.0 0.0 0.00 0.00 0.00 88 1012.9
20260831073104 67 0 0.0 0.0 0.00 0.00 0.00 87 1013.0
20260831071558 67 0 0.0 0.0 0.00 0.00 0.00 86 1013.0
20260831070059 67 0 0.0 0.0 0.00 0.00 0.00 86 1013.0
20260831064610 68 0 0.0 0.0 0.00 0.00 0.00 86 1013.0
20260831063100 68 0 0.0 1.0 0.00 0.00 0.00 85 1012.9
20260831061603 68 0 0.0 1.0 0.00 0.00 0.00 85 1012.8
20260831060059 69 0 0.0 1.0 0.00 0.00 0.00 84 1012.8
20260831054606 69 0 0.0 0.0 0.00 0.00 0.00 84 1012.7
20260831053057 69 260 0.0 0.0 0.00 0.00 0.00 83 1012.9
20260831051602 70 0 0.0 0.0 0.00 0.00 0.00 82 1012.8
20260831050101 70 0 0.0 0.0 0.00 0.00 0.00 82 1012.8
20260831044614 71 0 0.0 0.0 0.00 0.00 0.00 80 1012.7